This demonstration page uses our WeatherBlox Daily Observations layout. Learn more.

Left ArrowRight Arrow

39.01783, -85.05884

Hourly Observations for July 4, 2022

Temp ( °F °C ) Dew Point ( °F °C ) Humidity (%) Winds ( mph kmh ) Pressure ( in mb ) Visibility ( mi km ) Precip ( " mm )
12:52 am 00:52 Hazy 74 23.3 64 17.8 71 71 S 5 7 30.11 1020 5 8 0.00 0.00
1:52 am 01:52 Clear 73 22.8 65 18.3 76 76 SSW 3 6 30.11 1020 9 14 0.00 0.00
2:52 am 02:52 Clear 71 21.7 64 17.8 79 79 S 5 7 30.11 1020 9 14 0.00 0.00
3:52 am 03:52 Clear 72 22.2 64 17.8 76 76 SE 3 6 30.10 1019 9 14 0.00 0.00
4:52 am 04:52 Clear 71 21.7 64 17.8 79 79 ESE 3 6 30.10 1019 9 14 0.00 0.00
5:52 am 05:52 Mostly Clear 69 20.6 64 17.8 84 84 E 7 11 30.11 1020 9 14 0.00 0.00
6:52 am 06:52 Mostly Sunny 69 20.6 65 18.3 87 87 E 3 6 30.13 1020 10 16 0.00 0.00
7:52 am 07:52 Mostly Sunny 73 22.8 66 18.9 79 79 ESE 6 9 30.13 1020 10 16 0.00 0.00
8:52 am 08:52 Mostly Sunny 78 25.6 65 18.3 64 64 SE 9 15 30.13 1020 10 16 0.00 0.00
9:52 am 09:52 Mostly Sunny 81 27.2 64 17.8 57 57 SE 12 19 30.14 1021 10 16 0.00 0.00
10:52 am 10:52 Partly Cloudy 83 28.3 63 17.2 51 51 SE 13 20 30.14 1021 10 16 0.00 0.00
11:52 am 11:52 Mostly Cloudy 85 29.4 63 17.2 48 48 ESE 8 13 30.13 1020 10 16 0.00 0.00
12:52 pm 12:52 Mostly Cloudy 87 30.6 63 17.2 45 45 S 9 15 30.11 1020 10 16 0.00 0.00
1:52 pm 13:52 Mostly Cloudy 88 31.1 63 17.2 43 43 SE 10 17 30.09 1019 10 16 0.00 0.00
2:52 pm 14:52 Mostly Cloudy 88 31.1 62 16.7 42 42 VRB 3 6 30.07 1018 10 16 0.00 0.00
3:52 pm 15:52 Partly Cloudy 90 32.2 61 16.1 38 38 SSW 7 11 30.05 1018 10 16 0.00 0.00
4:52 pm 16:52 Partly Cloudy 91 32.8 63 17.2 39 39 SSW 10 17 30.03 1017 10 16 0.00 0.00
5:52 pm 17:52 Partly Cloudy 89 31.7 64 17.8 43 43 Calm 30.02 1017 10 16 0.00 0.00
6:52 pm 18:52 Mostly Cloudy 89 31.7 66 18.9 47 47 SW 5 7 30.03 1017 10 16 0.00 0.00
7:52 pm 19:52 Mostly Cloudy 88 31.1 67 19.4 50 50 WSW 3 6 30.03 1017 10 16 0.00 0.00
8:52 pm 20:52 Mostly Cloudy 83 28.3 68 20 61 61 S 3 6 30.02 1017 10 16 0.00 0.00
9:52 pm 21:52 Partly Cloudy 82 27.8 67 19.4 60 60 SE 9 15 30.02 1017 10 16 0.00 0.00
10:52 pm 22:52 Partly Cloudy 82 27.8 67 19.4 60 60 SSE 13 20 30.01 1016 10 16 0.00 0.00
11:52 pm 23:52 Partly Cloudy 80 26.7 68 20 67 67 SSE 9 15 29.99 1016 10 16 0.00 0.00

Powered by AerisWeather